QPF
0.02 0.01 0.00 0.00 0.00 0.01 0.02 0.00 0.00 0.00 0.00 0.00 0.00 0.00 0.00 0.00 0.00 0.00 0.00 0.00 0.00 0.00 0.00 0.00 0.00 0.00 0.00 0.00 0.00 0.00 0.00 0.00 0.00 0.00 0.00 0.00 0.00 0.00 0.00 0.00 0.00 0.00 0.00 0.00
0.02 0.02 0.00 0.00 0.01 0.02 0.01 0.01 0.00 0.01 0.01 0.00 0.00 0.00 0.00 0.00 0.00 0.00 0.00 0.00 0.00 0.00 0.00 0.00 0.00 0.00 0.00 0.00 0.00 0.00 0.00 0.00 0.00 0.00 0.00 0.00 0.00 0.00 0.00 0.00 0.00 0.00 0.00 0.00
0.01 0.01 0.00 0.00 0.01 0.02 0.02 0.01 0.00 0.02 0.02 0.00 0.00 0.00 0.00 0.00 0.00 0.00 0.00 0.00 0.00 0.00 0.00 0.00 0.00 0.00 0.00 0.00 0.00 0.00 0.01 0.00 0.00 0.00 0.00 0.00 0.00 0.00 0.00 0.00 0.01 0.00 0.00 0.00
0.01 0.01 0.00 0.00 0.00 0.02 0.03 0.02 0.01 0.00 0.00 0.00 0.00 0.00 0.00 0.00 0.00 0.00 0.00 0.00 0.00 0.00 0.00 0.00 0.00 0.00 0.00 0.00 0.00 0.01 0.02 0.01 0.00 0.00 0.00 0.00 0.00 0.00 0.00 0.00 0.00 0.00 0.00 0.00
0.01 0.01 0.00 0.00 0.01 0.03 0.02 0.01 0.00 0.00 0.00 0.00 0.00 0.00 0.00 0.00 0.00 0.00 0.00 0.00 0.00 0.00 0.00 0.00 0.00 0.00 0.00 0.00 0.00 0.02 0.02 0.01 0.00 0.00 0.00 0.00 0.00 0.00 0.00 0.00 0.00 0.00 0.00 0.00
0.01 0.01 0.00 0.00 0.01 0.02 0.01 0.00 0.00 0.00 0.00 0.00 0.00 0.00 0.00 0.00 0.00 0.00 0.00 0.00 0.00 0.00 0.00 0.00 0.00 0.00 0.00 0.00 0.01 0.02 0.02 0.01 0.00 0.00 0.00 0.01 0.00 0.00 0.00 0.00 0.00 0.00 0.00 0.00
0.02 0.01 0.00 0.00 0.02 0.01 0.00 0.00 0.00 0.00 0.00 0.00 0.00 0.00 0.00 0.00 0.00 0.00 0.00 0.00 0.00 0.00 0.00 0.01 0.01 0.00 0.00 0.00 0.01 0.01 0.00 0.00 0.00 0.00 0.00 0.01 0.00 0.00 0.00 0.00 0.00 0.00 0.00 0.00
0.03 0.02 0.00 0.00 0.01 0.03 0.01 0.01 0.00 0.00 0.00 0.00 0.00 0.00 0.00 0.00 0.00 0.00 0.00 0.00 0.00 0.00 0.00 0.01 0.00 0.00 0.00 0.00 0.00 0.00 0.00 0.00 0.00 0.00 0.00 0.00 0.00 0.00 0.00 0.00 0.00 0.00 0.00 0.00
0.03 0.02 0.00 0.00 0.00 0.04 0.03 0.01 0.02 0.01 0.00 0.00 0.00 0.00 0.00 0.00 0.00 0.00 0.00 0.00 0.00 0.00 0.00 0.01 0.01 0.00 0.00 0.00 0.00 0.00 0.00 0.01 0.00 0.00 0.01 0.00 0.00 0.00 0.00 0.00 0.00 0.00 0.00 0.00
0.03 0.02 0.00 0.00 0.00 0.02 0.02 0.01 0.01 0.01 0.00 0.00 0.00 0.00 0.00 0.00 0.00 0.00 0.00 0.00 0.00 0.00 0.00 0.00 0.00 0.00 0.00 0.00 0.00 0.00 0.01 0.01 0.01 0.00 0.00 0.00 0.00 0.00 0.00 0.00 0.00 0.00 0.00 0.00
0.04 0.03 0.01 0.00 0.01 0.02 0.02 0.00 0.00 0.01 0.01 0.00 0.00 0.00 0.00 0.00 0.00 0.00 0.00 0.00 0.00 0.00 0.00 0.00 0.00 0.00 0.00 0.00 0.00 0.00 0.00 0.00 0.00 0.00 0.00 0.00 0.00 0.00 0.00 0.00 0.00 0.00 0.00 0.00
0.04 0.03 0.02 0.02 0.02 0.01 0.02 0.01 0.00 0.01 0.01 0.01 0.00 0.00 0.00 0.00 0.00 0.00 0.00 0.00 0.00 0.00 0.00 0.00 0.00 0.00 0.00 0.00 0.00 0.00 0.01 0.00 0.00 0.00 0.00 0.00 0.00 0.00 0.00 0.00 0.00 0.00 0.00 0.00
0.01 0.01 0.02 0.02 0.03 0.03 0.03 0.00 0.00 0.02 0.01 0.00 0.00 0.00 0.00 0.00 0.00 0.00 0.00 0.00 0.00 0.00 0.00 0.00 0.00 0.00 0.00 0.00 0.00 0.00 0.00 0.00 0.00 0.00 0.00 0.00 0.00 0.00 0.00 0.00 0.00 0.00 0.00 0.00
0.01 0.01 0.02 0.02 0.02 0.04 0.04 0.01 0.00 0.01 0.00 0.00 0.00 0.00 0.00 0.00 0.00 0.00 0.00 0.00 0.00 0.00 0.00 0.00 0.00 0.00 0.00 0.00 0.00 0.00 0.01 0.00 0.00 0.00 0.00 0.00 0.00 0.00 0.00 0.00 0.00 0.00 0.00 0.00
0.00 0.00 0.01 0.02 0.02 0.03 0.01 0.00 0.00 0.00 0.01 0.00 0.00 0.00 0.00 0.00 0.00 0.00 0.00 0.00 0.00 0.00 0.00 0.00 0.00 0.00 0.00 0.00 0.00 0.00 0.00 0.00 0.00 0.00 0.00 0.00 0.00 0.00 0.00 0.00 0.00 0.00 0.00 0.00
0.00 0.01 0.01 0.03 0.02 0.01 0.01 0.00 0.00 0.00 0.01 0.00 0.00 0.00 0.00 0.00 0.00 0.00 0.00 0.00 0.00 0.00 0.00 0.00 0.00 0.00 0.00 0.00 0.00 0.00 0.00 0.00 0.00 0.00 0.00 0.00 0.00 0.00 0.00 0.00 0.00 0.00 0.00 0.00
0.00 0.00 0.00 0.01 0.00 0.01 0.00 0.00 0.00 0.00 0.00 0.00 0.00 0.00 0.00 0.00 0.00 0.00 0.00 0.00 0.00 0.00 0.00 0.00 0.00 0.00 0.00 0.00 0.00 0.00 0.00 0.00 0.00 0.00 0.00 0.00 0.00 0.00 0.00 0.00 0.00 0.00 0.00 0.00
0.00 0.00 0.01 0.01 0.01 0.01 0.00 0.00 0.00 0.00 0.00 0.00 0.00 0.00 0.00 0.00 0.00 0.00 0.00 0.00 0.00 0.00 0.00 0.00 0.00 0.00 0.00 0.00 0.00 0.00 0.00 0.00 0.00 0.00 0.00 0.00 0.00 0.00 0.00 0.00 0.00 0.00 0.00 0.00
0.00 0.01 0.01 0.01 0.01 0.00 0.00 0.00 0.00 0.00 0.00 0.00 0.00 0.00 0.00 0.00 0.00 0.00 0.00 0.00 0.00 0.00 0.00 0.00 0.00 0.00 0.00 0.00 0.00 0.00 0.00 0.00 0.00 0.00 0.00 0.00 0.00 0.00 0.00 0.00 0.00 0.00 0.00 0.00
0.01 0.01 0.00 0.00 0.00 0.00 0.00 0.00 0.00 0.00 0.00 0.00 0.00 0.00 0.00 0.00 0.00 0.00 0.00 0.00 0.00 0.00 0.00 0.00 0.00 0.00 0.00 0.00 0.00 0.00 0.00 0.00 0.00 0.00 0.00 0.00 0.00 0.00 0.00 0.00 0.00 0.00 0.00 0.00
0.01 0.00 0.00 0.00 0.00 0.00 0.00 0.00 0.00 0.00 0.00 0.00 0.00 0.00 0.00 0.00 0.00 0.00 0.00 0.00 0.00 0.00 0.00 0.00 0.00 0.00 0.00 0.00 0.00 0.00 0.00 0.00 0.00 0.00 0.00 0.00 0.00 0.00 0.00 0.00 0.00 0.00 0.00 0.00
0.00 0.00 0.00 0.00 0.00 0.00 0.00 0.00 0.00 0.00 0.00 0.00 0.00 0.00 0.00 0.00 0.00 0.00 0.00 0.00 0.00 0.00 0.00 0.00 0.00 0.00 0.00 0.00 0.00 0.00 0.00 0.00 0.00 0.00 0.00 0.00 0.00 0.00 0.00 0.00 0.00 0.00 0.00 0.00
0.00 0.00 0.00 0.00 0.00 0.00 0.00 0.00 0.00 0.00 0.00 0.00 0.00 0.00 0.00 0.00 0.00 0.00 0.00 0.00 0.00 0.00 0.00 0.00 0.00 0.00 0.00 0.00 0.00 0.00 0.00 0.00 0.00 0.00 0.00 0.00 0.00 0.00 0.00 0.00 0.00 0.00 0.00 0.00
0.00 0.00 0.00 0.00 0.00 0.00 0.00 0.00 0.00 0.00 0.00 0.00 0.00 0.00 0.00 0.00 0.00 0.00 0.00 0.00 0.00 0.00 0.00 0.00 0.00 0.00 0.00 0.00 0.00 0.00 0.00 0.00 0.00 0.00 0.00 0.00 0.00 0.00 0.00 0.00 0.00 0.00 0.00 0.00
0.00 0.00 0.00 0.00 0.00 0.00 0.00 0.00 0.00 0.00 0.00 0.00 0.00 0.00 0.00 0.00 0.00 0.00 0.00 0.00 0.00 0.00 0.00 0.00 0.00 0.00 0.00 0.00 0.00 0.00 0.00 0.00 0.00 0.00 0.00 0.00 0.00 0.00 0.00 0.00 0.00 0.00 0.00 0.00
0.00 0.00 0.00 0.00 0.00 0.00 0.00 0.00 0.00 0.00 0.00 0.00 0.00 0.00 0.00 0.00 0.00 0.00 0.00 0.00 0.00 0.00 0.00 0.00 0.00 0.00 0.00 0.00 0.00 0.00 0.00 0.00 0.00 0.00 0.00 0.00 0.00 0.00 0.00 0.00 0.00 0.00 0.00 0.00
0.00 0.00 0.00 0.00 0.00 0.00 0.00 0.00 0.00 0.00 0.00 0.00 0.00 0.00 0.00 0.00 0.00 0.00 0.00 0.00 0.00 0.00 0.00 0.00 0.00 0.00 0.00 0.00 0.00 0.00 0.00 0.00 0.00 0.00 0.00 0.00 0.00 0.00 0.00 0.00 0.00 0.00 0.00 0.00
MSLP
1016.63 1017.21 1018.08 1018.46 1019.05 1019.63 1020.04 1020.60 1021.40 1020.97 1020.62 1021.76 1021.39 1021.03 1020.62 1020.22 1019.54 1019.30 1019.40 1019.04 1018.84 1018.70 1018.56 1018.45 1018.24 1017.23 1016.01 1015.29 1015.37 1015.94 1015.99 1016.47 1016.39 1015.47 1014.72 1014.33 1014.60 1015.31 1016.15 1017.02 1017.65 1018.13 1019.02 1018.63
1016.16 1016.81 1017.56 1018.08 1018.67 1019.23 1019.83 1020.50 1020.81 1021.23 1021.13 1020.87 1020.63 1020.49 1020.11 1020.21 1020.05 1019.92 1019.56 1019.29 1018.97 1019.04 1019.14 1019.20 1018.12 1017.04 1015.96 1015.48 1015.61 1015.33 1015.73 1016.37 1016.71 1015.96 1015.56 1015.01 1015.11 1015.48 1015.93 1016.93 1017.82 1018.02 1019.19 1018.91
1015.60 1016.32 1017.07 1017.56 1017.94 1018.65 1019.30 1019.96 1020.71 1020.98 1021.02 1020.44 1020.41 1020.70 1019.63 1019.88 1019.44 1019.42 1019.84 1019.33 1019.18 1019.42 1019.41 1019.18 1018.31 1017.31 1016.22 1015.56 1015.45 1015.10 1015.30 1016.14 1016.64 1016.81 1016.42 1016.21 1016.11 1016.22 1016.41 1017.05 1017.66 1017.65 1018.20 1018.59
1015.06 1015.79 1016.54 1017.10 1017.65 1018.06 1019.11 1019.39 1019.41 1019.18 1019.52 1019.66 1020.15 1020.03 1019.11 1019.14 1019.30 1018.93 1019.05 1018.84 1019.31 1019.42 1019.52 1018.82 1018.05 1017.42 1016.79 1015.85 1015.43 1015.70 1016.07 1016.49 1016.85 1016.66 1016.47 1016.33 1016.28 1016.52 1016.95 1017.32 1017.21 1017.86 1017.76 1018.34
1014.66 1015.19 1015.93 1016.64 1017.16 1017.70 1019.02 1018.93 1018.93 1018.86 1018.83 1018.75 1019.29 1019.21 1018.39 1018.25 1018.92 1018.71 1018.41 1018.23 1018.29 1018.86 1018.83 1018.32 1017.70 1017.28 1016.83 1016.24 1015.80 1015.67 1016.43 1016.76 1017.18 1017.23 1016.60 1016.65 1016.59 1016.32 1016.76 1016.81 1016.96 1017.16 1017.49 1018.20
1014.09 1014.70 1015.35 1015.93 1016.62 1017.42 1017.68 1018.24 1018.49 1018.35 1018.04 1018.27 1018.23 1017.54 1017.43 1017.02 1018.01 1017.36 1017.13 1017.13 1017.66 1018.13 1016.57 1016.66 1016.78 1016.73 1016.38 1016.30 1016.15 1016.53 1016.80 1016.85 1017.34 1016.80 1016.36 1016.50 1016.30 1015.46 1015.62 1015.59 1015.58 1015.76 1017.04 1017.41
1013.45 1014.15 1014.72 1015.32 1015.92 1016.66 1017.19 1017.71 1018.15 1018.02 1017.10 1017.24 1016.77 1016.65 1016.80 1016.61 1016.58 1015.82 1015.91 1016.12 1016.84 1014.04 1016.38 1016.43 1016.14 1016.19 1015.57 1015.49 1015.32 1015.64 1016.27 1016.76 1017.04 1016.76 1016.59 1015.82 1014.52 1014.48 1014.70 1014.91 1014.97 1015.52 1016.50 1017.59
1012.96 1013.54 1014.17 1014.76 1015.36 1016.07 1016.81 1017.13 1017.61 1017.50 1016.50 1016.29 1016.32 1016.52 1016.36 1015.98 1015.80 1015.35 1015.06 1014.76 1014.35 1015.68 1016.53 1016.63 1016.31 1015.85 1015.58 1014.98 1014.77 1015.03 1015.03 1015.95 1016.49 1016.16 1015.71 1014.77 1014.08 1014.07 1014.54 1014.75 1014.53 1014.83 1016.28 1017.95
1012.38 1012.95 1013.61 1014.24 1014.82 1015.44 1016.33 1016.58 1016.70 1016.85 1016.34 1015.57 1015.34 1015.46 1015.40 1015.23 1014.90 1014.40 1013.42 1013.23 1014.04 1015.12 1015.81 1015.85 1015.51 1015.15 1014.70 1014.45 1014.15 1013.98 1014.51 1015.00 1016.02 1015.86 1015.39 1014.53 1013.64 1013.61 1013.96 1014.55 1015.16 1015.40 1016.37 1018.10
1011.78 1012.32 1013.03 1013.75 1014.36 1014.89 1015.66 1016.02 1016.13 1016.55 1015.93 1015.11 1015.11 1014.90 1014.73 1014.58 1014.44 1014.00 1013.38 1013.30 1013.91 1014.47 1014.94 1015.04 1014.92 1014.61 1013.97 1013.87 1013.71 1013.99 1014.48 1014.92 1015.08 1015.10 1015.04 1014.39 1013.51 1013.77 1014.32 1015.23 1015.90 1015.96 1016.81 1017.99
1011.21 1011.78 1012.55 1013.22 1013.83 1014.42 1015.27 1015.53 1015.84 1016.22 1015.90 1014.81 1014.44 1014.07 1013.95 1013.53 1013.52 1013.61 1013.31 1013.59 1013.93 1014.20 1014.39 1014.51 1014.29 1014.30 1013.69 1013.62 1013.02 1013.24 1013.81 1014.41 1014.73 1014.87 1014.90 1014.32 1013.48 1014.42 1014.79 1014.99 1015.67 1016.28 1017.17 1018.14
1010.62 1011.44 1012.02 1012.68 1013.27 1013.95 1014.75 1015.24 1015.32 1015.78 1016.08 1014.66 1013.71 1013.31 1012.81 1012.32 1012.58 1013.04 1013.06 1012.69 1012.74 1013.24 1013.57 1013.84 1013.47 1013.58 1013.54 1013.32 1013.25 1012.83 1013.33 1013.27 1013.89 1014.38 1014.19 1013.88 1014.26 1014.31 1014.63 1014.98 1015.76 1016.54 1017.32 1018.34
1010.57 1011.10 1011.60 1012.15 1012.77 1013.40 1014.20 1014.54 1014.83 1015.32 1014.97 1014.30 1013.62 1012.17 1011.98 1011.91 1011.86 1011.84 1012.31 1012.47 1012.04 1012.30 1012.25 1012.83 1012.75 1013.21 1013.31 1013.33 1013.01 1013.02 1013.07 1013.21 1013.71 1014.43 1014.33 1014.38 1014.57 1014.89 1015.06 1015.44 1016.02 1016.72 1017.41 1018.31
1010.23 1010.75 1011.19 1011.72 1012.33 1012.89 1013.50 1013.92 1014.45 1014.64 1014.55 1013.48 1012.05 1011.30 1011.27 1010.76 1011.11 1011.37 1011.61 1011.65 1011.74 1012.14 1012.03 1012.57 1012.68 1012.73 1012.53 1013.03 1012.86 1013.00 1013.10 1013.51 1014.11 1014.46 1014.66 1014.93 1014.96 1015.15 1015.52 1016.16 1016.56 1017.15 1017.91 1018.56
1009.93 1010.46 1010.95 1011.51 1012.05 1012.52 1013.02 1013.35 1013.71 1013.90 1014.59 1013.31 1012.19 1011.22 1010.55 1010.34 1010.54 1011.11 1011.22 1011.51 1011.76 1012.08 1012.77 1013.17 1012.84 1012.41 1012.51 1012.99 1012.96 1013.08 1012.97 1013.36 1014.07 1014.20 1014.01 1014.60 1014.97 1015.27 1015.87 1016.55 1017.13 1017.60 1018.15 1019.11
1009.86 1010.41 1010.87 1011.40 1011.83 1012.30 1012.92 1013.19 1012.80 1012.88 1013.78 1013.57 1012.50 1011.81 1010.89 1010.35 1010.42 1011.02 1011.49 1011.68 1012.18 1012.63 1012.98 1013.13 1012.71 1012.09 1012.36 1012.99 1013.23 1012.75 1012.76 1013.10 1013.30 1013.75 1014.32 1014.90 1015.30 1015.86 1016.33 1016.92 1017.54 1018.08 1018.59 1019.12
1009.87 1010.36 1010.84 1011.26 1011.70 1011.99 1012.27 1011.80 1011.26 1011.47 1012.83 1013.01 1012.63 1011.82 1010.95 1010.71 1010.98 1011.47 1011.87 1012.18 1012.42 1012.73 1012.65 1012.66 1012.53 1012.36 1012.08 1012.84 1013.25 1012.93 1013.12 1013.36 1013.76 1014.10 1014.46 1015.54 1015.91 1016.36 1016.88 1017.33 1017.97 1018.52 1019.11 1019.73
1009.88 1010.45 1010.79 1011.00 1011.25 1011.39 1011.14 1010.91 1010.59 1011.02 1011.78 1012.49 1012.34 1011.89 1011.56 1011.06 1011.35 1011.87 1012.03 1012.36 1012.91 1012.96 1012.82 1012.76 1012.68 1012.70 1012.71 1012.97 1012.87 1013.20 1013.54 1013.91 1014.36 1014.50 1014.52 1014.93 1015.75 1016.60 1017.38 1017.90 1018.42 1019.17 1019.90 1020.44
1010.03 1010.43 1010.69 1011.00 1010.78 1010.62 1010.17 1010.29 1010.42 1010.64 1011.61 1011.60 1011.93 1011.71 1011.72 1011.16 1011.73 1012.02 1012.39 1012.53 1013.11 1013.22 1013.20 1013.17 1013.17 1013.20 1012.89 1012.36 1012.66 1013.25 1013.64 1013.84 1014.52 1014.98 1015.35 1015.79 1016.28 1017.07 1017.77 1018.34 1019.04 1019.57 1020.38 1020.88
1009.98 1010.49 1010.32 1010.00 1009.53 1009.19 1009.28 1010.21 1010.58 1011.06 1010.88 1011.05 1011.40 1011.53 1011.67 1011.79 1012.26 1012.60 1012.86 1012.97 1013.49 1013.75 1013.80 1013.54 1013.52 1013.24 1012.44 1012.09 1012.24 1012.86 1013.56 1013.89 1014.46 1015.26 1016.12 1016.49 1017.00 1017.45 1018.01 1018.53 1019.01 1019.56 1020.40 1021.10
1009.87 1009.77 1009.44 1008.89 1008.93 1009.38 1009.73 1010.23 1010.59 1010.80 1011.02 1010.98 1011.28 1011.59 1011.77 1011.91 1012.29 1012.83 1013.38 1013.56 1013.97 1014.19 1014.20 1014.04 1014.16 1013.45 1012.49 1012.24 1012.57 1012.98 1013.51 1014.01 1014.48 1014.75 1015.17 1015.92 1016.50 1017.38 1018.19 1018.99 1019.58 1020.09 1020.73 1021.32
1009.21 1008.82 1008.75 1008.84 1009.10 1009.48 1009.91 1010.81 1010.98 1010.88 1011.15 1011.37 1011.52 1011.57 1011.65 1012.20 1012.06 1012.87 1013.75 1014.11 1014.50 1014.68 1014.64 1014.64 1014.58 1013.15 1012.56 1012.53 1012.85 1013.35 1013.83 1014.34 1014.79 1015.07 1015.67 1016.36 1017.03 1017.73 1018.47 1019.22 1019.88 1020.50 1021.09 1021.82
1009.06 1009.13 1009.17 1009.12 1010.32 1010.70 1010.91 1011.23 1011.32 1011.31 1011.39 1011.44 1011.55 1011.96 1012.04 1012.44 1012.60 1013.66 1013.96 1014.51 1014.97 1014.78 1015.24 1015.11 1014.25 1013.47 1013.12 1013.11 1013.29 1013.89 1014.25 1014.66 1015.19 1015.76 1016.31 1017.03 1017.74 1018.41 1019.05 1019.77 1020.35 1020.89 1021.71 1022.35
1009.40 1009.95 1010.63 1011.11 1011.38 1011.43 1011.51 1011.39 1011.45 1011.62 1011.66 1011.59 1011.72 1012.44 1012.76 1013.34 1013.64 1014.33 1014.83 1015.28 1015.15 1015.69 1015.84 1015.15 1014.48 1014.04 1013.85 1013.86 1014.06 1014.44 1015.09 1015.48 1016.01 1016.39 1017.01 1017.62 1018.25 1018.99 1019.68 1020.31 1020.60 1021.35 1022.18 1023.01
1010.03 1010.59 1011.93 1012.18 1012.13 1012.04 1011.88 1011.79 1011.77 1011.91 1011.85 1011.72 1012.15 1012.83 1013.06 1013.84 1014.35 1014.69 1015.14 1015.53 1015.54 1015.50 1015.23 1015.08 1014.99 1014.80 1014.67 1014.75 1015.00 1015.38 1015.88 1016.38 1016.97 1017.27 1017.87 1018.43 1019.08 1019.70 1020.52 1021.19 1021.27 1021.72 1022.56 1023.39
1011.14 1012.12 1012.55 1012.62 1012.45 1012.32 1012.15 1012.05 1012.07 1012.00 1011.93 1011.76 1012.07 1012.98 1013.59 1014.21 1014.43 1014.73 1014.93 1015.25 1015.37 1015.25 1015.26 1015.45 1015.50 1015.64 1015.84 1015.92 1016.13 1016.46 1016.81 1017.17 1017.66 1018.11 1018.64 1019.28 1019.85 1020.42 1021.08 1021.65 1022.02 1022.32 1022.75 1023.51
1012.12 1012.82 1012.99 1013.23 1013.22 1012.92 1012.67 1012.52 1012.32 1012.06 1012.02 1012.74 1012.97 1013.49 1013.99 1014.28 1014.43 1014.75 1014.66 1015.18 1015.37 1015.53 1015.80 1015.99 1016.04 1016.30 1016.63 1016.92 1017.20 1017.43 1017.61 1018.02 1018.49 1018.88 1019.35 1020.02 1020.57 1020.90 1021.42 1022.15 1022.72 1022.79 1023.17 1023.63
Thickness
5417 5418 5415 5416 5415 5416 5419 5420 5412 5428 5432 5425 5431 5447 5449 5463 5469 5467 5462 5469 5471 5473 5482 5478 5467 5479 5499 5508 5504 5495 5496 5475 5464 5504 5514 5519 5513 5504 5501 5490 5501 5497 5466 5504
5409 5410 5409 5407 5407 5409 5409 5408 5411 5416 5420 5425 5435 5442 5452 5451 5448 5451 5456 5455 5463 5464 5449 5439 5453 5476 5496 5495 5495 5494 5493 5467 5471 5491 5497 5508 5505 5503 5499 5487 5479 5490 5478 5472
5402 5403 5402 5402 5403 5404 5403 5406 5399 5408 5413 5424 5424 5426 5442 5437 5450 5447 5443 5450 5455 5451 5435 5442 5436 5465 5482 5486 5491 5498 5495 5481 5485 5470 5475 5482 5492 5489 5494 5485 5482 5488 5482 5489
5395 5396 5396 5394 5395 5397 5395 5400 5408 5414 5418 5423 5421 5422 5436 5433 5433 5443 5439 5439 5435 5435 5411 5432 5447 5451 5463 5477 5483 5483 5476 5471 5465 5480 5487 5481 5469 5470 5472 5469 5476 5475 5483 5475
5384 5388 5388 5386 5388 5389 5386 5392 5398 5407 5408 5419 5419 5423 5436 5433 5430 5431 5432 5437 5438 5428 5422 5431 5441 5444 5446 5455 5470 5474 5466 5452 5450 5441 5472 5472 5465 5471 5464 5465 5464 5464 5471 5469
5376 5380 5382 5382 5382 5382 5388 5391 5396 5405 5417 5416 5415 5430 5432 5438 5431 5439 5440 5439 5434 5417 5436 5438 5440 5443 5450 5454 5461 5447 5454 5454 5456 5469 5468 5463 5467 5468 5463 5471 5473 5481 5470 5483
5370 5373 5376 5376 5378 5381 5384 5386 5389 5395 5413 5414 5422 5429 5428 5429 5429 5435 5440 5439 5428 5453 5436 5435 5438 5436 5448 5453 5458 5455 5454 5449 5450 5463 5455 5458 5472 5469 5470 5468 5478 5469 5461 5445
5362 5367 5370 5372 5375 5376 5378 5382 5384 5387 5405 5412 5417 5414 5418 5423 5427 5430 5432 5437 5443 5431 5421 5418 5423 5432 5435 5444 5456 5459 5465 5455 5455 5461 5460 5467 5484 5467 5460 5463 5480 5473 5462 5438
5357 5362 5365 5368 5370 5373 5373 5377 5382 5386 5396 5406 5418 5412 5416 5418 5423 5427 5439 5446 5437 5429 5420 5424 5433 5446 5446 5449 5462 5469 5467 5462 5451 5449 5459 5462 5482 5474 5469 5470 5460 5457 5450 5434
5354 5358 5361 5363 5366 5369 5370 5374 5379 5380 5391 5407 5409 5409 5414 5416 5416 5421 5430 5433 5430 5427 5422 5432 5426 5439 5458 5446 5460 5457 5454 5451 5453 5453 5458 5463 5475 5469 5467 5461 5458 5448 5443 5434
5353 5356 5357 5360 5362 5365 5365 5371 5373 5376 5382 5400 5407 5413 5411 5419 5418 5418 5424 5424 5422 5424 5429 5434 5432 5432 5447 5448 5470 5462 5456 5449 5442 5447 5458 5462 5466 5461 5461 5458 5446 5443 5436 5428
5351 5353 5356 5358 5360 5361 5362 5366 5371 5372 5374 5395 5404 5411 5419 5426 5424 5418 5415 5428 5424 5424 5428 5428 5436 5441 5441 5451 5451 5465 5454 5462 5454 5458 5457 5454 5450 5458 5454 5450 5444 5438 5429 5422
5348 5351 5354 5356 5358 5361 5362 5367 5369 5370 5379 5391 5398 5415 5421 5424 5425 5426 5423 5419 5436 5436 5438 5437 5444 5449 5437 5436 5438 5451 5454 5453 5447 5450 5446 5447 5451 5447 5447 5446 5443 5432 5425 5415
5346 5349 5353 5355 5358 5360 5363 5367 5368 5372 5377 5392 5409 5418 5421 5429 5427 5428 5428 5432 5434 5435 5438 5437 5439 5444 5447 5441 5450 5448 5448 5448 5440 5436 5436 5441 5444 5446 5439 5432 5429 5424 5415 5408
5346 5349 5352 5354 5357 5360 5363 5367 5370 5374 5374 5389 5402 5413 5424 5429 5429 5426 5430 5432 5432 5430 5427 5425 5433 5437 5442 5432 5439 5442 5443 5441 5432 5436 5448 5448 5445 5437 5431 5426 5420 5415 5410 5398
5344 5346 5350 5353 5355 5358 5360 5362 5374 5379 5375 5382 5396 5403 5416 5425 5427 5425 5426 5428 5424 5423 5420 5421 5429 5438 5435 5425 5431 5447 5446 5443 5447 5445 5439 5433 5429 5425 5424 5417 5411 5407 5401 5394
5342 5346 5349 5352 5354 5358 5362 5374 5384 5386 5380 5381 5391 5400 5415 5420 5420 5417 5416 5417 5417 5416 5418 5422 5426 5427 5430 5416 5426 5439 5439 5439 5435 5433 5434 5427 5424 5420 5416 5411 5406 5400 5391 5384
5342 5345 5348 5352 5355 5360 5369 5378 5386 5388 5388 5388 5390 5398 5407 5415 5411 5412 5408 5409 5404 5407 5411 5414 5422 5421 5419 5423 5434 5429 5427 5427 5428 5432 5433 5430 5421 5413 5406 5402 5396 5388 5381 5374
5341 5345 5350 5353 5359 5365 5376 5381 5387 5391 5388 5388 5387 5398 5398 5410 5403 5402 5403 5402 5401 5400 5407 5412 5412 5412 5422 5437 5429 5424 5424 5429 5424 5420 5417 5415 5412 5405 5398 5393 5386 5381 5371 5367
5344 5346 5353 5359 5369 5379 5383 5381 5383 5385 5391 5395 5395 5395 5400 5402 5396 5396 5400 5394 5394 5401 5399 5400 5398 5403 5424 5430 5432 5429 5425 5424 5420 5415 5408 5405 5402 5399 5394 5389 5384 5378 5369 5361
5346 5350 5359 5372 5378 5377 5378 5376 5385 5386 5394 5395 5395 5398 5399 5398 5398 5392 5389 5391 5389 5397 5403 5403 5400 5413 5419 5429 5429 5426 5424 5421 5420 5421 5416 5409 5404 5396 5387 5380 5374 5368 5362 5356
5355 5363 5369 5374 5374 5374 5382 5371 5382 5397 5401 5390 5391 5396 5398 5392 5396 5397 5387 5391 5384 5403 5384 5388 5390 5409 5425 5425 5425 5422 5418 5416 5414 5413 5407 5401 5396 5390 5383 5375 5368 5362 5356 5345
5356 5360 5363 5373 5361 5362 5367 5363 5381 5381 5382 5384 5388 5387 5390 5385 5389 5379 5385 5381 5382 5382 5378 5392 5400 5405 5417 5419 5418 5413 5412 5410 5407 5403 5399 5392 5386 5381 5375 5369 5362 5352 5344 5335
5351 5354 5352 5348 5340 5357 5373 5378 5384 5378 5373 5380 5382 5377 5381 5372 5382 5372 5374 5371 5379 5364 5377 5404 5390 5404 5407 5407 5408 5408 5404 5399 5399 5395 5388 5382 5377 5367 5360 5357 5351 5345 5336 5324
5349 5352 5343 5347 5356 5359 5364 5367 5372 5372 5373 5380 5379 5376 5379 5365 5367 5366 5368 5374 5367 5382 5387 5383 5381 5390 5397 5399 5398 5391 5387 5380 5380 5376 5371 5363 5361 5357 5345 5338 5338 5335 5327 5318
5341 5340 5339 5346 5355 5359 5362 5367 5372 5370 5371 5378 5381 5374 5370 5368 5368 5380 5376 5385 5377 5379 5385 5379 5381 5382 5378 5379 5380 5377 5375 5374 5370 5365 5360 5353 5349 5347 5339 5331 5327 5321 5319 5312
5337 5339 5339 5322 5336 5351 5357 5361 5367 5367 5372 5365 5370 5367 5375 5370 5370 5378 5384 5371 5378 5373 5371 5371 5374 5373 5371 5367 5364 5363 5363 5361 5357 5351 5349 5340 5336 5334 5332 5327 5314 5314 5309 5302